Weather History for TJSJ - February, 2012

Change the Weather History Date:

Saturday, February 4, 2012

  Actual Average Record
Temperature  
Mean Temperature 77 °F 78 °F  
Max Temperature 82 °F 83 °F 89 °F (1984)
Min Temperature 71 °F 72 °F 64 °F (1910)
Degree Days  
Heating Degree Days 0 0  
Month to date heating degree days 0 0  
Since 1 July heating degree days 0 0  
Cooling Degree Days 12 13  
Month to date cooling degree days 48 52  
Year to date cooling degree days 436 443  
Growing Degree Days 26 (Base 50)    
Moisture  
Dew Point 67 °F    
Average Humidity 73    
Maximum Humidity 87    
Minimum Humidity 58    
Precipitation  
Precipitation 0.21 in 0.09 in 1.95 in (1935)
Month to date precipitation 0.60 0.37  
Year to date precipitation 4.33 4.13  
Snow  
Snow 0.00 in 0.00 in - ()
Month to date snowfall 0.0 0.0  
Since 1 July snowfall 0.0 0.0  
Snow Depth 0.00 in    
Sea Level Pressure  
Sea Level Pressure 30.03 in    
Wind  
Wind Speed 12 mph (ENE)    
Max Wind Speed 21 mph    
Max Gust Speed 25 mph    
Visibility 10 miles    
Events Rain    
T = Trace of Precipitation, MM = Missing Value Source: NWS Daily Summary

Daily Weather History Graph

Daily Weather History Graph

Search for Another Location

Airport or City:

Trip Planner

Search our weather history database for the weather conditions in past years. The results will help you decide how hot, cold, wet, or windy it might be!

Date:

Astronomy

Feb. 04, 2012 Rise Set
Actual Time 6:56 AM AST 6:19 PM AST
Civil Twilight 6:33 AM AST 6:42 PM AST
Nautical Twilight 6:07 AM AST 7:08 PM AST
Astronomical Twilight 5:41 AM AST 7:34 PM AST
Moon 3:27 PM AST (2/4) 4:03 AM AST (2/4)
Length of Visible Light 12h 08m
Length of Day
11h 22m
Waxing Gibbous, 88% of the Moon is Illuminated
Feb 4
Waxing Gibbous
Feb 7
Full
Feb 14
Last Quarter
Feb 21
New
Feb 29
First Quarter

Hourly Weather History & Observations

Time (AST) Temp. Heat Index Dew Point Humidity Pressure Visibility Wind Dir Wind Speed Gust Speed Precip Events Conditions
12:56 AM 75.9 °F - 68.0 °F 76% 30.02 in 10.0 mi ENE 11.5 mph - N/A   Scattered Clouds
1:56 AM 75.0 °F - 66.9 °F 76% 30.01 in 10.0 mi ENE 17.3 mph 21.9 mph 0.00 in   Scattered Clouds
2:56 AM 75.0 °F - 66.0 °F 73% 29.99 in 10.0 mi ENE 12.7 mph - N/A   Scattered Clouds
3:56 AM 75.0 °F - 66.0 °F 73% 30.00 in 10.0 mi ENE 10.4 mph - N/A   Mostly Cloudy
4:56 AM 75.0 °F - 64.9 °F 71% 30.00 in 10.0 mi ENE 12.7 mph - N/A   Scattered Clouds
5:56 AM 73.9 °F - 64.9 °F 73% 30.01 in 10.0 mi ENE 9.2 mph - N/A   Scattered Clouds
6:56 AM 75.0 °F - 64.0 °F 69% 30.03 in 10.0 mi ENE 12.7 mph - N/A   Scattered Clouds
7:56 AM 75.9 °F - 64.9 °F 69% 30.05 in 10.0 mi ENE 10.4 mph - N/A   Scattered Clouds
8:56 AM 78.1 °F - 64.0 °F 62% 30.07 in 10.0 mi ENE 11.5 mph - N/A   Scattered Clouds
9:56 AM 78.1 °F - 64.0 °F 62% 30.08 in 10.0 mi ENE 13.8 mph - N/A   Scattered Clouds
10:56 AM 78.1 °F - 64.9 °F 64% 30.08 in 10.0 mi ENE 12.7 mph - N/A   Scattered Clouds
11:56 AM 80.1 °F 81.9 °F 64.9 °F 60% 30.06 in 10.0 mi ENE 17.3 mph 23.0 mph N/A   Scattered Clouds
12:56 PM 81.0 °F 83.0 °F 66.0 °F 60% 30.04 in 10.0 mi ENE 18.4 mph 24.2 mph N/A   Scattered Clouds
1:56 PM 80.1 °F 82.3 °F 66.9 °F 64% 30.02 in 10.0 mi NE 16.1 mph - N/A   Scattered Clouds
2:56 PM 79.0 °F - 66.0 °F 64% 29.99 in 10.0 mi ENE 13.8 mph 21.9 mph N/A   Scattered Clouds
3:56 PM 79.0 °F - 66.0 °F 64% 29.98 in 10.0 mi NE 13.8 mph 21.9 mph N/A   Mostly Cloudy
4:56 PM 78.1 °F - 66.0 °F 66% 29.99 in 10.0 mi ENE 12.7 mph - N/A   Mostly Cloudy
5:56 PM 77.0 °F - 66.0 °F 69% 30.00 in 10.0 mi NE 11.5 mph - N/A   Mostly Cloudy
6:56 PM 77.0 °F - 66.9 °F 71% 30.02 in 10.0 mi NE 12.7 mph - N/A   Overcast
7:56 PM 73.0 °F - 70.0 °F 90% 30.03 in 10.0 mi ENE 6.9 mph - 0.09 in   Scattered Clouds
8:42 PM 71.6 °F - 71.6 °F 100% 30.05 in 5.0 mi ENE 12.7 mph - 0.01 in Rain Light Rain
8:56 PM 71.1 °F - 71.6 °F 100% 30.05 in 8.0 mi East 6.9 mph - 0.10 in Rain Light Rain
9:56 PM 73.0 °F - 70.0 °F 90% 30.05 in 10.0 mi NNE 10.4 mph - 0.00 in   Mostly Cloudy
10:56 PM 73.0 °F - 70.0 °F 90% 30.04 in 10.0 mi ENE 8.1 mph - 0.02 in   Mostly Cloudy
11:56 PM 72.0 °F - 68.4 °F 88% 30.04 in 10.0 mi Calm Calm - N/A   Scattered Clouds